When you browse on this site, cookies collect data to enhance your experience and personalize the content and advertising you see.
Visit our Privacy Policy to learn more. By continuing to use the site, you agree to this use of cookies and data.
  • In Portugal
  • List of Countries
  • For 7 days
  • Water Temperature
  • Weather Map
  • Weather Widgets
  • user-avatar
    Login

    Hourly Weather Lloret de Mar

    Today, 20 November, Wednesday

    Time Temperature Precipitation Wind Pressure Humidity
    00:00 +5°C° 0 mm 2 mps 759 mmHg 74%
    01:00 +5°C° 0 mm 2 mps 759 mmHg 71%
    02:00 +5°C° 0 mm 2 mps 758 mmHg 69%
    03:00 +5°C° 0 mm 2 mps 758 mmHg 67%
    04:00 +5°C° 0 mm 2 mps 758 mmHg 65%
    05:00 +5°C° 0 mm 2 mps 758 mmHg 64%
    06:00 +4°C° 0 mm 2 mps 758 mmHg 62%
    07:00 +6°C° 0 mm 2 mps 758 mmHg 59%
    08:00 +8°C° 0 mm 2 mps 758 mmHg 55%
    09:00 +9°C° 0 mm 2 mps 758 mmHg 52%
    10:00 +11°C° 0 mm 3 mps 757 mmHg 52%
    11:00 +12°C° 0 mm 4 mps 757 mmHg 52%
    12:00 +13°C° 0 mm 5 mps 757 mmHg 52%
    13:00 +13°C° 0 mm 5 mps 756 mmHg 54%
    14:00 +13°C° 0 mm 5 mps 756 mmHg 55%
    15:00 +13°C° 0 mm 5 mps 756 mmHg 57%
    16:00 +11°C° 0 mm 4 mps 755 mmHg 63%
    17:00 +10°C° 0 mm 4 mps 755 mmHg 70%
    18:00 +8°C° 0 mm 4 mps 755 mmHg 76%
    19:00 +8°C° 0 mm 4 mps 755 mmHg 77%
    20:00 +8°C° 0 mm 4 mps 755 mmHg 78%
    21:00 +8°C° 0 mm 4 mps 755 mmHg 78%
    22:00 +7°C° 0 mm 4 mps 755 mmHg 81%
    23:00 +8°C° 0 mm 3 mps 755 mmHg 84%

    Tomorrow, 21 November, Thursday

    Time Temperature Precipitation Wind Pressure Humidity
    00:00 +7°C° 0 mm 3 mps 755 mmHg 88%
    01:00 +8°C° 0.1 mm 3 mps 754 mmHg 86%
    02:00 +8°C° 0.1 mm 2 mps 754 mmHg 84%
    03:00 +8°C° 0.1 mm 2 mps 754 mmHg 83%
    04:00 +8°C° 0 mm 2 mps 753 mmHg 82%
    05:00 +8°C° 0 mm 3 mps 753 mmHg 81%
    06:00 +9°C° 0 mm 3 mps 753 mmHg 80%
    07:00 +10°C° 0 mm 3 mps 754 mmHg 75%
    08:00 +11°C° 0 mm 3 mps 754 mmHg 70%
    09:00 +12°C° 0 mm 4 mps 754 mmHg 66%
    10:00 +13°C° 0 mm 4 mps 754 mmHg 62%
    11:00 +14°C° 0 mm 5 mps 754 mmHg 57%
    12:00 +15°C° 0 mm 5 mps 753 mmHg 53%
    13:00 +14°C° 0 mm 6 mps 753 mmHg 54%
    14:00 +14°C° 0 mm 6 mps 753 mmHg 55%
    15:00 +14°C° 0 mm 6 mps 753 mmHg 56%
    16:00 +11°C° 0 mm 6 mps 754 mmHg 62%
    17:00 +10°C° 0 mm 5 mps 754 mmHg 69%
    18:00 +8°C° 0 mm 5 mps 754 mmHg 75%
    19:00 +8°C° 0 mm 5 mps 754 mmHg 77%
    20:00 +8°C° 0 mm 5 mps 755 mmHg 78%
    21:00 +7°C° 0 mm 4 mps 755 mmHg 79%
    22:00 +7°C° 0 mm 4 mps 755 mmHg 79%
    23:00 +7°C° 0 mm 4 mps 755 mmHg 79%

    Day after tomorrow, 22 November, Friday

    Time Temperature Precipitation Wind Pressure Humidity
    00:00 +7°C° 0 mm 4 mps 755 mmHg 79%
    01:00 +8°C° 0 mm 3 mps 754 mmHg 80%
    02:00 +7°C° 0 mm 3 mps 754 mmHg 80%
    03:00 +7°C° 0 mm 3 mps 754 mmHg 80%
    04:00 +7°C° 0 mm 2 mps 753 mmHg 79%
    05:00 +7°C° 0 mm 2 mps 753 mmHg 78%
    06:00 +7°C° 0 mm 2 mps 753 mmHg 77%
    07:00 +9°C° 0 mm 3 mps 753 mmHg 72%
    08:00 +10°C° 0 mm 3 mps 753 mmHg 68%
    09:00 +12°C° 0 mm 4 mps 753 mmHg 63%
    10:00 +13°C° 0 mm 4 mps 752 mmHg 65%
    11:00 +14°C° 0 mm 5 mps 751 mmHg 68%
    12:00 +15°C° 0 mm 5 mps 751 mmHg 70%
    13:00 +15°C° 0.1 mm 5 mps 750 mmHg 73%
    14:00 +15°C° 0.1 mm 5 mps 749 mmHg 76%
    15:00 +15°C° 0.1 mm 5 mps 749 mmHg 79%
    16:00 +14°C° 0.4 mm 6 mps 748 mmHg 83%
    17:00 +13°C° 0.4 mm 6 mps 748 mmHg 87%
    18:00 +12°C° 0.4 mm 7 mps 747 mmHg 91%
    19:00 +12°C° 2.3 mm 7 mps 747 mmHg 93%
    20:00 +12°C° 2.3 mm 8 mps 746 mmHg 95%
    21:00 +12°C° 2.3 mm 8 mps 745 mmHg 97%
    22:00 +13°C° 3.5 mm 9 mps 744 mmHg 96%
    23:00 +13°C° 3.5 mm 10 mps 744 mmHg 96%

    23 November, Saturday

    Time Temperature Precipitation Wind Pressure Humidity
    00:00 +13°C° 3.5 mm 11 mps 743 mmHg 95%
    01:00 +13°C° 1.2 mm 9 mps 742 mmHg 94%
    02:00 +12°C° 1.2 mm 7 mps 742 mmHg 93%
    03:00 +13°C° 1.2 mm 5 mps 741 mmHg 92%
    04:00 +12°C° 0 mm 5 mps 741 mmHg 92%
    05:00 +10°C° 0 mm 5 mps 741 mmHg 91%
    06:00 +9°C° 0 mm 5 mps 742 mmHg 90%
    07:00 +11°C° 0 mm 4 mps 742 mmHg 87%
    08:00 +12°C° 0 mm 3 mps 743 mmHg 84%
    09:00 +12°C° 0 mm 3 mps 743 mmHg 82%
    10:00 +13°C° 0.3 mm 3 mps 744 mmHg 79%
    11:00 +14°C° 0.3 mm 3 mps 744 mmHg 77%
    12:00 +16°C° 0.3 mm 3 mps 745 mmHg 75%
    13:00 +14°C° 0.8 mm 4 mps 745 mmHg 77%
    14:00 +14°C° 0.8 mm 4 mps 745 mmHg 78%
    15:00 +14°C° 0.8 mm 5 mps 745 mmHg 79%
    16:00 +13°C° 0.1 mm 5 mps 746 mmHg 82%
    17:00 +10°C° 0.1 mm 5 mps 747 mmHg 84%
    18:00 +9°C° 0.1 mm 5 mps 748 mmHg 86%
    19:00 +10°C° 0.1 mm 4 mps 749 mmHg 86%
    20:00 +10°C° 0.1 mm 4 mps 749 mmHg 86%
    21:00 +10°C° 0.1 mm 4 mps 750 mmHg 86%
    22:00 +10°C° 0 mm 3 mps 751 mmHg 86%
    23:00 +10°C° 0 mm 3 mps 751 mmHg 86%

    24 November, Sunday

    Time Temperature Precipitation Wind Pressure Humidity
    00:00 +9°C° 0 mm 3 mps 752 mmHg 86%
    01:00 +9°C° 0 mm 3 mps 752 mmHg 85%
    02:00 +8°C° 0 mm 4 mps 753 mmHg 84%
    03:00 +8°C° 0 mm 4 mps 753 mmHg 83%
    04:00 +8°C° 0 mm 4 mps 754 mmHg 82%
    05:00 +8°C° 0 mm 4 mps 754 mmHg 81%
    06:00 +7°C° 0 mm 4 mps 755 mmHg 80%
    07:00 +10°C° 0 mm 4 mps 755 mmHg 77%
    08:00 +11°C° 0 mm 4 mps 756 mmHg 75%
    09:00 +12°C° 0 mm 4 mps 757 mmHg 72%
    10:00 +14°C° 0 mm 4 mps 757 mmHg 67%
    11:00 +15°C° 0 mm 4 mps 758 mmHg 61%
    12:00 +17°C° 0 mm 4 mps 758 mmHg 56%
    13:00 +17°C° 0 mm 4 mps 758 mmHg 58%
    14:00 +17°C° 0 mm 4 mps 758 mmHg 59%
    15:00 +17°C° 0 mm 4 mps 758 mmHg 61%
    16:00 +14°C° 0 mm 4 mps 759 mmHg 66%
    17:00 +12°C° 0 mm 4 mps 759 mmHg 71%
    18:00 +11°C° 0 mm 3 mps 760 mmHg 77%
    19:00 +11°C° 0 mm 3 mps 760 mmHg 77%
    20:00 +11°C° 0 mm 3 mps 760 mmHg 77%
    21:00 +12°C° 0 mm 2 mps 760 mmHg 77%
    22:00 +10°C° 0 mm 2 mps 760 mmHg 77%
    23:00 +10°C° 0 mm 2 mps 760 mmHg 77%

    25 November, Monday

    Time Temperature Precipitation Wind Pressure Humidity
    00:00 +10°C° 0 mm 2 mps 760 mmHg 77%
    01:00 +10°C° 0 mm 2 mps 760 mmHg 77%
    02:00 +10°C° 0 mm 1 mps 760 mmHg 77%
    03:00 +10°C° 0 mm 1 mps 760 mmHg 77%
    04:00 +10°C° 0 mm 1 mps 760 mmHg 75%
    05:00 +10°C° 0 mm 1 mps 760 mmHg 74%
    06:00 +9°C° 0 mm 2 mps 760 mmHg 72%
    07:00 +11°C° 0 mm 1 mps 761 mmHg 68%
    08:00 +12°C° 0 mm 1 mps 761 mmHg 64%
    09:00 +14°C° 0 mm 1 mps 761 mmHg 60%
    10:00 +15°C° 0 mm 1 mps 761 mmHg 55%
    11:00 +17°C° 0 mm 2 mps 761 mmHg 50%
    12:00 +19°C° 0 mm 2 mps 761 mmHg 45%
    13:00 +18°C° 0 mm 3 mps 761 mmHg 49%
    14:00 +18°C° 0 mm 3 mps 760 mmHg 53%
    15:00 +17°C° 0 mm 3 mps 760 mmHg 58%
    16:00 +16°C° 0 mm 3 mps 760 mmHg 61%
    17:00 +13°C° 0 mm 3 mps 760 mmHg 64%
    18:00 +11°C° 0 mm 3 mps 761 mmHg 67%
    19:00 +11°C° 0 mm 3 mps 761 mmHg 65%
    20:00 +11°C° 0 mm 3 mps 761 mmHg 63%
    21:00 +11°C° 0 mm 3 mps 761 mmHg 61%
    22:00 +12°C° 0 mm 2 mps 761 mmHg 59%
    23:00 +12°C° 0 mm 2 mps 761 mmHg 57%
    Show more